Simultaneous Nadir Overpasses (SNOs) Predictions

Prediction of SNOs between AQUA and METOP-A Satellite Orbit:

Table of predicted SNOs for the next 14.0 days since TLE Epoch: 11/23/2013
Index Date (AQUA) Time (AQUA) Lat,Lon (AQUA) SZA (AQUA ) Date (METOP-A) Time (METOP-A) Lat,Lon (METOP-A) SZA (METOP-A ) Distance(km) Time Diff (sec)
1 11/23/2013 12:07:42 -73.83, 172.28 85.83 11/23/2013 12:06:37 -73.84, 172.37 85.81 3.06 65
2 11/23/2013 12:57:11 73.90, -20.24 94.26 11/23/2013 12:57:16 73.86, -20.24 94.23 3.80 5
3 11/23/2013 13:46:41 -74.13, 146.87 85.49 11/23/2013 13:47:52 -74.16, 147.82 85.48 28.95 71
4 11/26/2013 07:41:55 -73.80,-121.22 85.29 11/26/2013 07:40:57 -73.83,-121.23 85.26 3.21 58
5 11/26/2013 08:31:24 73.88, 46.25 94.80 11/26/2013 08:31:35 73.90, 46.28 94.82 2.75 11
6 11/26/2013 09:20:59 -74.37,-147.24 84.69 11/26/2013 09:22:07 -74.40,-145.16 84.69 62.19 68
7 11/29/2013 03:16:07 -73.80, -54.76 84.79 11/29/2013 03:15:17 -73.82, -54.85 84.77 3.49 50
8 11/29/2013 04:05:36 73.88, 112.70 95.30 11/29/2013 04:05:55 73.88, 112.64 95.31 1.78 19
9 12/01/2013 22:50:17 -73.81, 11.67 84.33 12/01/2013 22:49:35 -73.84, 11.61 84.30 3.05 42
10 12/01/2013 23:39:46 73.90, 179.12 95.77 12/01/2013 23:40:13 73.90, 179.11 95.78 0.44 27
11 12/04/2013 18:24:27 -73.85, 78.06 83.90 12/04/2013 18:23:54 -73.85, 78.05 83.89 0.33 33
12 12/04/2013 19:13:56 73.94,-114.50 96.21 12/04/2013 19:14:32 73.91,-114.45 96.18 3.24 36




NCC Satellite Simultaneous Nadir Overpasses (SNOs) Prediction Service
